Time,TemperatureF,DewpointF,PressureIn,WindDirection,WindDirectionDegrees,WindSpeedMPH,WindSpeedGustMPH,Humidity,HourlyPrecipIn,Conditions,Clouds,dailyrainin,SoftwareType,DateUTC
2013-04-30 00:03:00,55.5,41.0,30.20,SSW,207,2.0,6.0,59,0.00,,,0.00,weatherlink.com 1.10,2013-04-30 04:03:00,
2013-04-30 00:18:00,55.6,40.0,30.20,WSW,238,2.0,8.0,57,0.00,,,0.00,weatherlink.com 1.10,2013-04-30 04:18:00,
2013-04-30 00:34:00,55.5,41.0,30.21,WSW,238,5.0,8.0,58,0.00,,,0.00,weatherlink.com 1.10,2013-04-30 04:34:00,
2013-04-30 00:49:00,55.3,41.0,30.20,WNW,303,3.0,9.0,59,0.00,,,0.00,weatherlink.com 1.10,2013-04-30 04:49:00,
2013-04-30 01:04:00,55.1,41.0,30.20,SW,231,0.0,6.0,60,0.00,,,0.00,weatherlink.com 1.10,2013-04-30 05:04:00,
2013-04-30 01:19:00,55.0,41.0,30.21,South,176,0.0,3.0,60,0.00,,,0.00,weatherlink.com 1.10,2013-04-30 05:19:00,
2013-04-30 01:34:00,55.0,42.0,30.21,West,261,2.0,5.0,62,0.00,,,0.00,weatherlink.com 1.10,2013-04-30 05:34:00,
2013-04-30 01:49:00,54.7,42.0,30.21,SSE,159,4.0,5.0,63,0.00,,,0.00,weatherlink.com 1.10,2013-04-30 05:49:00,
2013-04-30 02:04:00,54.7,42.0,30.21,SW,233,1.0,7.0,62,0.00,,,0.00,weatherlink.com 1.10,2013-04-30 06:04:00,
2013-04-30 02:19:00,54.6,42.0,30.20,SW,221,2.0,6.0,62,0.00,,,0.00,weatherlink.com 1.10,2013-04-30 06:19:00,
2013-04-30 02:34:00,54.4,41.0,30.20,SW,227,2.0,4.0,62,0.00,,,0.00,weatherlink.com 1.10,2013-04-30 06:34:00,
2013-04-30 02:49:00,54.3,41.0,30.20,SW,235,4.0,4.0,62,0.00,,,0.00,weatherlink.com 1.10,2013-04-30 06:49:00,
2013-04-30 03:04:00,54.3,41.0,30.21,SW,235,1.0,6.0,62,0.00,,,0.00,weatherlink.com 1.10,2013-04-30 07:04:00,
2013-04-30 03:19:00,54.2,41.0,30.21,SSW,203,0.0,4.0,62,0.00,,,0.00,weatherlink.com 1.10,2013-04-30 07:19:00,
2013-04-30 03:34:00,53.9,42.0,30.22,SW,228,1.0,2.0,64,0.00,,,0.00,weatherlink.com 1.10,2013-04-30 07:34:00,
2013-04-30 03:49:00,53.8,42.0,30.22,WNW,287,0.0,4.0,64,0.00,,,0.00,weatherlink.com 1.10,2013-04-30 07:49:00,
2013-04-30 04:04:00,53.6,42.0,30.23,SE,129,4.0,6.0,64,0.00,,,0.00,weatherlink.com 1.10,2013-04-30 08:04:00,
2013-04-30 04:19:00,53.5,41.0,30.23,WSW,255,1.0,3.0,63,0.00,,,0.00,weatherlink.com 1.10,2013-04-30 08:19:00,
2013-04-30 04:34:00,53.4,41.0,30.23,SW,231,1.0,2.0,64,0.00,,,0.00,weatherlink.com 1.10,2013-04-30 08:34:00,
2013-04-30 04:49:00,53.2,42.0,30.23,WNW,286,1.0,2.0,65,0.00,,,0.00,weatherlink.com 1.10,2013-04-30 08:49:00,
2013-04-30 05:04:00,53.1,42.0,30.24,West,279,0.0,3.0,66,0.00,,,0.00,weatherlink.com 1.10,2013-04-30 09:04:00,
2013-04-30 05:19:00,52.7,42.0,30.24,SW,233,1.0,1.0,67,0.00,,,0.00,weatherlink.com 1.10,2013-04-30 09:19:00,
2013-04-30 05:34:00,52.6,42.0,30.25,West,263,0.0,3.0,67,0.00,,,0.00,weatherlink.com 1.10,2013-04-30 09:34:00,
2013-04-30 05:49:00,52.4,42.0,30.25,SW,231,0.0,2.0,67,0.00,,,0.00,weatherlink.com 1.10,2013-04-30 09:49:00,
2013-04-30 06:04:00,52.2,43.0,30.26,West,268,1.0,4.0,70,0.00,,,0.00,weatherlink.com 1.10,2013-04-30 10:04:00,
2013-04-30 06:19:00,51.9,43.0,30.26,WSW,252,0.0,4.0,72,0.00,,,0.00,weatherlink.com 1.10,2013-04-30 10:19:00,
2013-04-30 06:34:00,51.8,43.0,30.26,South,191,0.0,2.0,72,0.00,,,0.00,weatherlink.com 1.10,2013-04-30 10:34:00,
2013-04-30 06:49:00,51.8,43.0,30.27,South,191,0.0,1.0,72,0.00,,,0.00,weatherlink.com 1.10,2013-04-30 10:49:00,
2013-04-30 07:04:00,52.0,43.0,30.27,WSW,243,1.0,2.0,71,0.00,,,0.00,weatherlink.com 1.10,2013-04-30 11:04:00,
2013-04-30 07:19:00,52.4,42.0,30.28,WSW,239,0.0,2.0,69,0.00,,,0.00,weatherlink.com 1.10,2013-04-30 11:19:00,
2013-04-30 07:34:00,52.8,42.0,30.28,SW,236,1.0,5.0,68,0.00,,,0.00,weatherlink.com 1.10,2013-04-30 11:34:00,
2013-04-30 07:49:00,53.1,43.0,30.28,SSW,198,1.0,4.0,68,0.00,,,0.00,weatherlink.com 1.10,2013-04-30 11:49:00,
2013-04-30 08:04:00,53.9,42.0,30.28,West,269,0.0,4.0,65,0.00,,,0.00,weatherlink.com 1.10,2013-04-30 12:04:00,
2013-04-30 08:19:00,54.5,42.0,30.29,WSW,244,1.0,5.0,63,0.00,,,0.00,weatherlink.com 1.10,2013-04-30 12:19:00,
2013-04-30 08:35:00,54.7,42.0,30.29,SSW,204,4.0,6.0,62,0.00,,,0.00,weatherlink.com 1.10,2013-04-30 12:35:00,
2013-04-30 08:50:00,54.8,42.0,30.29,SSW,200,3.0,5.0,63,0.00,,,0.00,weatherlink.com 1.10,2013-04-30 12:50:00,
2013-04-30 09:05:00,55.5,42.0,30.29,West,276,3.0,5.0,61,0.00,,,0.00,weatherlink.com 1.10,2013-04-30 13:05:00,
2013-04-30 09:20:00,56.6,42.0,30.29,West,273,3.0,6.0,59,0.00,,,0.00,weatherlink.com 1.10,2013-04-30 13:20:00,
2013-04-30 09:35:00,57.7,41.0,30.28,WSW,256,5.0,6.0,55,0.00,,,0.00,weatherlink.com 1.10,2013-04-30 13:35:00,
2013-04-30 09:50:00,58.9,42.0,30.28,West,260,4.0,7.0,54,0.00,,,0.00,weatherlink.com 1.10,2013-04-30 13:50:00,
2013-04-30 10:05:00,58.9,42.0,30.28,West,273,3.0,7.0,54,0.00,,,0.00,weatherlink.com 1.10,2013-04-30 14:05:00,
2013-04-30 10:20:00,59.7,42.0,30.28,SSW,206,1.0,5.0,53,0.00,,,0.00,weatherlink.com 1.10,2013-04-30 14:20:00,
2013-04-30 10:35:00,60.9,42.0,30.28,SW,221,2.0,5.0,51,0.00,,,0.00,weatherlink.com 1.10,2013-04-30 14:35:00,
2013-04-30 10:50:00,61.9,44.0,30.27,SSE,156,2.0,5.0,52,0.00,,,0.00,weatherlink.com 1.10,2013-04-30 14:50:00,
2013-04-30 11:05:00,63.4,44.0,30.27,West,271,4.0,8.0,50,0.00,,,0.00,weatherlink.com 1.10,2013-04-30 15:05:00,
2013-04-30 11:20:00,64.0,44.0,30.26,SE,126,1.0,5.0,48,0.00,,,0.00,weatherlink.com 1.10,2013-04-30 15:20:00,
2013-04-30 11:35:00,64.3,46.0,30.25,SE,143,4.0,11.0,52,0.00,,,0.00,weatherlink.com 1.10,2013-04-30 15:35:00,
2013-04-30 11:50:00,65.4,46.0,30.25,SSE,154,5.0,12.0,49,0.00,,,0.00,weatherlink.com 1.10,2013-04-30 15:50:00,
2013-04-30 12:05:00,66.7,45.0,30.25,SE,133,6.0,11.0,46,0.00,,,0.00,weatherlink.com 1.10,2013-04-30 16:05:00,
2013-04-30 12:20:00,66.4,44.0,30.25,SSE,148,5.0,13.0,44,0.00,,,0.00,weatherlink.com 1.10,2013-04-30 16:20:00,
2013-04-30 12:35:00,68.1,45.0,30.24,WSW,240,1.0,10.0,43,0.00,,,0.00,weatherlink.com 1.10,2013-04-30 16:35:00,
2013-04-30 12:50:00,69.4,46.0,30.24,SE,145,3.0,9.0,43,0.00,,,0.00,weatherlink.com 1.10,2013-04-30 16:50:00,
2013-04-30 13:05:00,70.3,45.0,30.24,WNW,287,1.0,8.0,40,0.00,,,0.00,weatherlink.com 1.10,2013-04-30 17:05:00,
2013-04-30 13:20:00,71.4,44.0,30.23,WSW,250,1.0,8.0,37,0.00,,,0.00,weatherlink.com 1.10,2013-04-30 17:20:00,
2013-04-30 13:35:00,72.0,45.0,30.23,WSW,238,4.0,5.0,38,0.00,,,0.00,weatherlink.com 1.10,2013-04-30 17:35:00,
2013-04-30 13:50:00,72.2,46.0,30.23,SW,226,5.0,8.0,39,0.00,,,0.00,weatherlink.com 1.10,2013-04-30 17:50:00,
2013-04-30 14:05:00,72.6,47.0,30.23,SSW,211,2.0,7.0,40,0.00,,,0.00,weatherlink.com 1.10,2013-04-30 18:05:00,
2013-04-30 14:20:00,72.9,46.0,30.22,WNW,283,12.0,12.0,38,0.00,,,0.00,weatherlink.com 1.10,2013-04-30 18:20:00,
2013-04-30 14:35:00,72.9,45.0,30.22,SE,139,2.0,11.0,37,0.00,,,0.00,weatherlink.com 1.10,2013-04-30 18:35:00,
2013-04-30 14:50:00,73.1,47.0,30.22,SW,236,4.0,9.0,39,0.00,,,0.00,weatherlink.com 1.10,2013-04-30 18:50:00,
2013-04-30 15:05:00,73.6,46.0,30.22,WNW,302,2.0,8.0,37,0.00,,,0.00,weatherlink.com 1.10,2013-04-30 19:05:00,
2013-04-30 15:21:00,74.0,45.0,30.22,SSE,148,3.0,9.0,36,0.00,,,0.00,weatherlink.com 1.10,2013-04-30 19:21:00,
2013-04-30 15:35:00,74.3,47.0,30.22,WSW,245,1.0,10.0,38,0.00,,,0.00,weatherlink.com 1.10,2013-04-30 19:35:00,
2013-04-30 15:51:00,74.4,46.0,30.21,WSW,256,4.0,9.0,37,0.00,,,0.00,weatherlink.com 1.10,2013-04-30 19:51:00,
2013-04-30 16:06:00,74.6,46.0,30.21,West,276,5.0,9.0,36,0.00,,,0.00,weatherlink.com 1.10,2013-04-30 20:06:00,
2013-04-30 16:21:00,74.5,46.0,30.21,WSW,244,3.0,13.0,36,0.00,,,0.00,weatherlink.com 1.10,2013-04-30 20:21:00,
2013-04-30 16:36:00,74.5,46.0,30.21,WNW,296,2.0,9.0,37,0.00,,,0.00,weatherlink.com 1.10,2013-04-30 20:36:00,
2013-04-30 16:51:00,75.1,45.0,30.21,West,270,1.0,9.0,34,0.00,,,0.00,weatherlink.com 1.10,2013-04-30 20:51:00,
2013-04-30 17:06:00,76.0,46.0,30.21,WSW,252,5.0,7.0,35,0.00,,,0.00,weatherlink.com 1.10,2013-04-30 21:06:00,
2013-04-30 17:21:00,75.0,45.0,30.21,West,269,8.0,9.0,34,0.00,,,0.00,weatherlink.com 1.10,2013-04-30 21:21:00,
2013-04-30 17:36:00,75.1,44.0,30.21,South,181,2.0,10.0,33,0.00,,,0.00,weatherlink.com 1.10,2013-04-30 21:36:00,
2013-04-30 17:51:00,75.4,45.0,30.21,WSW,238,6.0,8.0,34,0.00,,,0.00,weatherlink.com 1.10,2013-04-30 21:51:00,
2013-04-30 18:06:00,75.1,45.0,30.21,SW,236,2.0,7.0,34,0.00,,,0.00,weatherlink.com 1.10,2013-04-30 22:06:00,
2013-04-30 18:21:00,75.0,44.0,30.21,SW,231,4.0,6.0,33,0.00,,,0.00,weatherlink.com 1.10,2013-04-30 22:21:00,
2013-04-30 18:36:00,74.8,44.0,30.21,SW,223,2.0,7.0,33,0.00,,,0.00,weatherlink.com 1.10,2013-04-30 22:36:00,
2013-04-30 18:51:00,73.3,45.0,30.21,WSW,243,3.0,8.0,36,0.00,,,0.00,weatherlink.com 1.10,2013-04-30 22:51:00,
2013-04-30 19:06:00,72.2,44.0,30.21,SW,232,2.0,4.0,37,0.00,,,0.00,weatherlink.com 1.10,2013-04-30 23:06:00,
2013-04-30 19:21:00,71.1,43.0,30.21,NW,314,1.0,4.0,37,0.00,,,0.00,weatherlink.com 1.10,2013-04-30 23:21:00,
2013-04-30 19:36:00,70.2,45.0,30.21,SW,233,1.0,2.0,41,0.00,,,0.00,weatherlink.com 1.10,2013-04-30 23:36:00,
2013-04-30 19:51:00,68.3,45.0,30.21,WNW,293,0.0,2.0,43,0.00,,,0.00,weatherlink.com 1.10,2013-04-30 23:51:00,
2013-04-30 20:06:00,66.6,45.0,30.22,NW,308,0.0,1.0,46,0.00,,,0.00,weatherlink.com 1.10,2013-05-01 00:06:00,
2013-04-30 20:21:00,65.3,45.0,30.22,NW,319,1.0,3.0,48,0.00,,,0.00,weatherlink.com 1.10,2013-05-01 00:21:00,
2013-04-30 20:36:00,64.9,45.0,30.22,NW,314,1.0,2.0,48,0.00,,,0.00,weatherlink.com 1.10,2013-05-01 00:36:00,
2013-04-30 20:51:00,63.6,45.0,30.23,NW,326,1.0,3.0,52,0.00,,,0.00,weatherlink.com 1.10,2013-05-01 00:51:00,
2013-04-30 21:06:00,62.3,45.0,30.23,NW,319,0.0,2.0,54,0.00,,,0.00,weatherlink.com 1.10,2013-05-01 01:06:00,
2013-04-30 21:21:00,60.7,45.0,30.23,NNE,21,0.0,2.0,57,0.00,,,0.00,weatherlink.com 1.10,2013-05-01 01:21:00,
2013-04-30 21:36:00,60.0,45.0,30.23,NW,323,0.0,1.0,59,0.00,,,0.00,weatherlink.com 1.10,2013-05-01 01:36:00,
2013-04-30 21:51:00,58.5,46.0,30.23,NW,308,0.0,1.0,63,0.00,,,0.00,weatherlink.com 1.10,2013-05-01 01:51:00,
2013-04-30 22:06:00,57.4,46.0,30.23,NW,309,0.0,0.0,66,0.00,,,0.00,weatherlink.com 1.10,2013-05-01 02:06:00,
2013-04-30 22:21:00,57.7,45.0,30.24,NNW,330,1.0,3.0,64,0.00,,,0.00,weatherlink.com 1.10,2013-05-01 02:21:00,
2013-04-30 22:36:00,57.3,46.0,30.24,NW,312,0.0,4.0,66,0.00,,,0.00,weatherlink.com 1.10,2013-05-01 02:36:00,
2013-04-30 22:51:00,56.6,46.0,30.24,NW,309,0.0,1.0,67,0.00,,,0.00,weatherlink.com 1.10,2013-05-01 02:51:00,
2013-04-30 23:06:00,56.2,46.0,30.24,NW,316,0.0,2.0,68,0.00,,,0.00,weatherlink.com 1.10,2013-05-01 03:06:00,
2013-04-30 23:21:00,55.6,46.0,30.24,NW,314,0.0,3.0,69,0.00,,,0.00,weatherlink.com 1.10,2013-05-01 03:21:00,
2013-04-30 23:36:00,54.1,46.0,30.24,NW,326,0.0,1.0,73,0.00,,,0.00,weatherlink.com 1.10,2013-05-01 03:36:00,
2013-04-30 23:51:00,52.6,46.0,30.25,NW,326,0.0,0.0,77,0.00,,,0.00,weatherlink.com 1.10,2013-05-01 03:51:00,